Location: Namasale
(1.5000°N, 32.6167°E)
Time: 21:52:30
(UTC+00:00)

Vanguard 3 - Pass Details

Date: 26 April 2021
Orbit: 507 x 3262 km, 33.4° (Epoch: 16 May)

Event Time Altitude Azimuth Distance (km) Brightness Sun altitude
Rises 19:00:48 0° 252° (WSW) 6,909 12.4 -46.0°
Reaches altitude 10° 19:06:28 10° 260° (W) 5,570 11.8 -47.3°
Maximum altitude 19:20:03 36° 320° (NW) 2,837 10.0 -50.5°
Enters shadow 19:22:25 33° 342° (NNW) 2,734 9.8 -51.0°
